Location: Le Gr�zie
(43.6000°N, 13.5000°E)
Time: 04:07:47
(UTC+00:00)

CZ-2C R/B - Pass Details

Date: 09 April 2020
Orbit: 705 x 907 km, 98.1° (Epoch: 02 June)

Event Time Altitude Azimuth Distance (km) Brightness Sun altitude
Rises 18:30:34 0° 161° (SSE) 3,162 5.8 -9.2°
Reaches altitude 10° 18:32:52 10° 160° (SSE) 2,221 5.0 -9.5°
Maximum altitude 18:37:42 77° 75° (ENE) 738 2.8 -10.4°
Drops below altitude 10° 18:42:28 10° 350° (N) 2,186 5.8 -11.2°
Sets 18:44:43 0° 349° (N) 3,108 6.7 -11.5°
